This demonstration page uses our WeatherBlox Daily Observations layout. Learn more.

Left ArrowRight Arrow

Hourly Observations for October 19, 2022

Temp ( °F °C ) Dew Point ( °F °C ) Humidity (%) Winds ( mph kmh ) Pressure ( in mb ) Visibility ( mi km ) Precip ( " mm )
12:53 am 00:53 Clear 59 15 38 3.3 45 45 VRB 3 6 30.06 1018 10 16 0.00 0.00
1:53 am 01:53 Clear 56 13.3 38 3.3 51 51 Calm 30.06 1018 10 16 0.00 0.00
2:53 am 02:53 Clear 54 12.2 37 2.8 53 53 NNE 3 6 30.06 1018 10 16 0.00 0.00
3:53 am 03:53 Clear 51 10.6 37 2.8 58 58 Calm 30.06 1018 10 16 0.00 0.00
4:53 am 04:53 Clear 52 11.1 37 2.8 57 57 NNE 5 7 30.05 1018 10 16 0.00 0.00
5:53 am 05:53 Clear 51 10.6 37 2.8 58 58 Calm 30.06 1018 10 16 0.00 0.00
6:53 am 06:53 Clear 49 9.4 37 2.8 63 63 Calm 30.07 1018 10 16 0.00 0.00
7:53 am 07:53 Sunny 52 11.1 36 2.2 54 54 NW 6 9 30.07 1018 10 16 0.00 0.00
8:53 am 08:53 Sunny 60 15.6 38 3.3 44 44 Calm 30.09 1019 10 16 0.00 0.00
9:53 am 09:53 Sunny 78 25.6 36 2.2 22 22 NNW 8 13 30.07 1018 10 16 0.00 0.00
10:53 am 10:53 Sunny 86 30 30 -1.1 13 13 N 9 15 30.06 1018 10 16 0.00 0.00
11:53 am 11:53 Sunny 90 32.2 31 -0.6 12 12 N 10 17 30.05 1018 10 16 0.00 0.00
12:53 pm 12:53 Sunny 94 34.4 30 -1.1 10 10 N 5 7 30.02 1017 10 16 0.00 0.00
1:53 pm 13:53 Sunny 96 35.6 29 -1.7 9 9 NW 9 15 29.99 1016 10 16 0.00 0.00
2:53 pm 14:53 Sunny 99 37.2 27 -2.8 8 8 N 7 11 29.96 1015 10 16 0.00 0.00
3:53 pm 15:53 Sunny 99 37.2 24 -4.4 7 7 N 6 9 29.95 1014 10 16 0.00 0.00
4:53 pm 16:53 Sunny 99 37.2 26 -3.3 8 8 N 5 7 29.93 1014 10 16 0.00 0.00
5:53 pm 17:53 Sunny 95 35 27 -2.8 9 9 NW 3 6 29.93 1014 10 16 0.00 0.00
6:53 pm 18:53 Clear 83 28.3 28 -2.2 14 14 N 5 7 29.94 1014 10 16 0.00 0.00
7:53 pm 19:53 Clear 82 27.8 30 -1.1 15 15 WNW 7 11 29.94 1014 10 16 0.00 0.00
8:53 pm 20:53 Clear 76 24.4 29 -1.7 18 18 N 3 6 29.95 1014 10 16 0.00 0.00
9:53 pm 21:53 Clear 70 21.1 31 -0.6 23 23 N 3 6 29.96 1015 10 16 0.00 0.00
10:53 pm 22:53 Clear 72 22.2 30 -1.1 21 21 NW 8 13 29.96 1015 10 16 0.00 0.00
11:53 pm 23:53 Clear 63 17.2 32 0 31 31 Calm 29.96 1015 10 16 0.00 0.00

Powered by AerisWeather